Погода в Клименках

Россия / Белгородская область     50°03′13″N   38°22′49″E
темп.,
°C
ветер,
м/с
пор.,
м/с
влажн.,
%
обл.,
%
осадки,
мм/ч
давл.,
гПа
погр.,
м
22 января, сб
сб2200:00−8ююз5139421 0.0 1009243
03:00−10ю4109783 0.0 1009162
06:00−8ююз51195100 0.1 1009281
09:00−8ююз5109591 0.3 1011294
12:00−6ююз51095100 0.1 1012377
15:00−5ююз499497 0.1 1012451
18:00−4юз5787100 0.1 1013415
21:00−5ю3694100 0.1 1015235
23 января, вс
вс2300:00−5ююв3594100 0.0 1016120
03:00−7ююв3493100 0.0 101781
06:00−12юв2297100 0.0 101912
09:00−10всв2297100 0.0 102132
12:00−6всв4694100 0.0 1022221
15:00−5св4994100 0.0 1022393
18:00−6ссв51393100 0.0 1023335
21:00−6ссв61493100 0.0 1023391
24 января, пн
пн2400:00−5ссв71495100 0.3 1023505
03:00−5св71594100 0.7 1023484
06:00−3всв71396100 1.1 1023655
09:00−5всв7139299 1.9 1024494
12:00−6всв61293100 0.2 1025437
15:00−6всв61094100 0.3 1025424
18:00−7всв51194100 0.1 1026353
21:00−8всв51095100 0.4 1026349
25 января, вт
вт2500:00−8всв599598 0.2 1025243
03:00−8всв489696 0.4 1024222
06:00−8в3796100 0.3 1024192
09:00−9вюв369786 0.4 102599
12:00−5ююв379781 0.0 1024195
15:00−2ю3895100 0.1 1023329
18:00−2ююв3694100 0.0 1022246
21:00−2ю3794100 0.0 1022263
26 января, ср
ср2600:00−3юз3796100 0.0 1022312
03:00−9ююз229998 0.0 102218
06:00−15ю1110093 0.0 10229
09:00−15юв229984 0.0 102212
12:00−6юв2391100 0.0 102199
15:00−4вюв2393100 0.0 1021136
18:00−9в2297100 0.0 102116
21:00−11в2297100 0.0 102122